Other Public Products
Issued by NWS Grand Forks, ND

Home | Current Version | Previous Version | Text Only | Print | Product List | Glossary Off
Versions: 1 2 3 4 5 6 7 8 9 10 11 12 13 14 15 16 17 18 19 20 21 22 23 24 25 26 27 28 29 30 31 32 33 34 35 36 37 38 39 40 41 42 43 44 45 46 47 48 49 50

039
FPUS83 KFGF 280331
OPUFGF
PRAIRIE TO PINES WEATHER ROUNDUP
NATIONAL WEATHER SERVICE EASTERN NORTH DAKOTA/GRAND FORKS ND
1000 PM CDT MON MAR 27 2017

 **SATELLITE DATA USED TO AUGMENT SKY COVER AT AUTOMATED STATIONS**
 *****  WEATHER ACROSS EASTERN NORTH DAKOTA  *****

CITY           SKY/WX    TMP DP  RH WIND       PRES   REMARKS
GRAND FORKS    FOG       36  36 100 N8        30.07R VSB 1/2
GRAND FORKS AF CLOUDY    36  36 100 N9        30.07R FOG
GRAND CITY NWS NOT AVBL
BUXTON         NOT AVBL
DEVILS LAKE    CLOUDY    35  35 100 E10       30.05R FOG
FARGO          FAIR      40  39  97 N10       30.02R FOG
WAHPETON ARPT  FAIR      41  34  75 N3        30.02R
$$

 *****  WEATHER ACROSS CENTRAL AND WESTERN NORTH DAKOTA  *****

CITY           SKY/WX    TMP DP  RH WIND       PRES   REMARKS
JAMESTOWN      FAIR      39  37  92 E8        30.00R
BISMARCK       FAIR      46  34  62 NE5       29.98R
MINOT          FOG       36  35  96 E7        30.03R VSB 3/4
MINOT AFB      FOG       36  36 100 SE7       30.03R VSB 3/4
GARRISON         N/A     37  35  92 NE7       30.00R
WILLISTON      LGT RAIN  45  37  73 NE14      30.00R
DICKINSON      FAIR      43  35  73 NE10      29.92R
HETTINGER      FAIR      46  30  53 E8        29.95R
$$

 *****  OTHER OBSERVATIONS NORTHEAST NORTH DAKOTA  *****

CITY           SKY/WX    TMP DP  RH WIND       PRES   REMARKS
WALHALLA       NOT AVBL
LANGDON        CLOUDY    34  34 100 N7        30.07R
CAVALIER       MOCLDY    34  34 100 NW7       30.09R
GRAFTON        FOG       34  34 100 NW7       30.09S VSB 1/2
CANDO          NOT AVBL
FORT TOTTEN      N/A     37  37 100 E7        29.95S
ROLLA          CLOUDY    32  32 100 NE7       30.08R
RUGBY          NOT AVBL
 ***** THE ABOVE OBSERVATIONS ARE NON NWS ARE NOT QUALITY
        CONTROLLED AND MAY MIS-REPORT RAIN FOR SNOW...
$$

 *****  OTHER OBSERVATIONS SOUTHEAST NORTH DAKOTA *****

CITY           SKY/WX    TMP DP  RH WIND       PRES   REMARKS
COOPERSTOWN    FOG       37  37 100 NE13      30.05R VSB 1/2
VALLEY CITY    FAIR      37  39 100 NE6       30.04R FOG
OAKES          NOT AVBL
GWINNER        CLEAR     43  37  81 MISG      30.02R
SHEYENNE NWR     N/A     45  39  80 NE6       29.95S
BUFFALO        NOT AVBL
WYNDMERE         N/A     36  34  93 NW3         N/A
 ***** THE ABOVE OBSERVATIONS ARE NON NWS ARE NOT QUALITY
       CONTROLLED AND MAY MIS-REPORT RAIN FOR SNOW...
$$

  *****  WEATHER ACROSS NORTHERN MINNESOTA  *****

CITY           SKY/WX    TMP DP  RH WIND       PRES   REMARKS
FLAG ISLAND    FAIR      41  28  60 N7        30.05S
WARROAD        MOCLDY    39  32  75 N6        30.05S
ROSEAU         FAIR      39  34  81 N5        30.05R
HALLOCK        CLOUDY    36  34  93 NW5       30.07R
THF RVR FALLS  CLOUDY   N/A N/A N/A N7        30.05R
HALSTAD          N/A     38  37  97 N13         N/A
FOSSTON        FAIR      34  30  86 CALM      30.04R
BAUDETTE       CLOUDY    41  30  65 N8        30.03R
WASKISH        FAIR      34  28  80 CALM      30.02R
CROOKSTON      MIX PCPN  36  36 100 N9        30.07R VSB 3/4
$$
  *****  WEATHER ACROSS CENTRAL AND WEST MINNESOTA  *****

CITY           SKY/WX    TMP DP  RH WIND       PRES   REMARKS
BEMIDJI        FAIR      41  30  65 CALM      30.01R
PARK RAPIDS    FAIR      40  25  55 CALM      30.00R
WADENA         HAZE      37  30  75 CALM      30.00S VSB 1
DETROIT LAKES  FAIR      43  41  93 NW3       30.02R
MOORHEAD       FAIR      39  37  93 N7        30.04R FOG
FERGUS FALLS   FAIR      45  37  76 CALM      30.04R
ELBOW LAKE     FAIR      42  35  75 CALM      30.01R
MORRIS MN      FAIR      43  34  70 CALM      30.00R
STAPLES        MOCLDY    39  32  75 CALM      30.01R
WHEATON        FAIR      41  34  75 CALM      30.03R
$$
  *****  WEATHER ELSEWHERE ACROSS MINNESOTA  *****

CITY           SKY/WX    TMP DP  RH WIND       PRES   REMARKS
DULUTH         FAIR      38  31  76 SE3       30.01R
INTRNTL FALLS  CLOUDY    39  27  62 N5        30.01R
ELY            FAIR      30  23  74 CALM      30.01S
CLOQUET        FAIR      34  28  80 CALM      30.02R
BRAINERD       FAIR      36  29  75 CALM      30.01R
HIBBING        FAIR      29  25  85 NW3       30.00R
ALEXANDRIA     FAIR      43  35  73 CALM      30.01R
SAINT CLOUD    FAIR      39  34  82 N5        30.01R
MINNEAPOLIS    FAIR      47  36  65 S5        30.00R
$$

  *****  WEATHER ACROSS SOUTH DAKOTA  *****

CITY           SKY/WX    TMP DP  RH WIND       PRES   REMARKS
SIOUX FALLS    FAIR      48  39  71 SE8       29.99R
BROOKINGS      MOCLDY    46  37  71 SE6       29.99R
WATERTOWN      CLOUDY    47  36  65 E6        29.99R
HURON          FAIR      47  37  68 E5        29.97R
SISSETON         N/A     42  34  73 CALM      29.99R
ABERDEEN       CLOUDY    46 N/A N/A E3        29.99R
MITCHELL       FAIR      49  36  61 S8        29.97R
PIERRE         FAIR      43  33  68 NE7       29.94R
MOBRIDGE       FAIR      47  35  63 E7        29.95R
RAPID CITY     FAIR      49  35  58 E14       29.90R
$$

  *****  SOME WEATHER IN NEARBY STATES *****

CITY           SKY/WX    TMP DP  RH WIND       PRES   REMARKS
GLASGOW MT     FAIR      45  34  65 E13       29.93R
GREAT FALLS MT CLOUDY    43  30  60 SW12      29.98R
CHEYENNE WY    LGT RAIN  43  39  86 NE3       29.86F
SCOTTSBLUFF NE CLOUDY    58  34  40 E10       29.84R
OMAHA NE       MOCLDY    48  38  68 E5        30.00R
DES MOINES IA  CLOUDY    49  40  71 N8        30.00R
DAVENPORT IA   CLOUDY    48  45  89 N3        29.98R
CHICAGO IL     CLOUDY    43  36  76 NE12      29.97R
EAU CLAIRE WI  FAIR      37  35  92 CALM      30.00R
LA CROSSE WI   CLOUDY    44  39  82 NW5       30.01R
$$

  *****  SOME NATIONAL WEATHER *****

CITY           SKY/WX    TMP DP  RH WIND       PRES   REMARKS
LA GUARDIA NY  CLOUDY    44  40  85 NE5       30.01S
RALEIGH NC     MOCLDY    69  55  60 S9        29.98S
ATLANTA GA     CLOUDY    71  54  54 S9        29.97R
NEW ORLEANS LA MOCLDY    72  69  90 S7        29.97R
OKLAHOMA CITY  FAIR      58  47  66 NE10      29.93R
ALBUQUERQUE NM CLOUDY    55  37  50 N16       29.86S
SALT LAKE CITY MOCLDY    44  39  82 N10       29.95R
LOS ANGELES CA FAIR      66  33  29 NW10G18   29.94R
BOISE ID       FAIR      47  31  53 NW10      30.12R
SEATTLE WA     MOCLDY    48  42  80 SW12      30.21R
$$

*** WEATHER ACROSS MANITOBA...SASKATCHEWAN AND ONTARIO ***
                ***ONTARIO***

CITY           SKY/WX    TMP DP  RH WIND       PRES   REMARKS
GERALDTON      PTCLDY    30  21  69 N2        29.99S
THUNDER BAY    PTCLDY    30  28  93 SW2       30.02R
SIOUX LOOKOUT  MOCLDY    32  27  80 N2        30.04R
TORONTO        CLOUDY    54  50  87 W7        29.89R
BIG TROUT LK   FLURRIES  19  10  68 N6        30.15R WCI  11
PICKLE LAKE    NOT AVBL
DRYDEN         CLOUDY    41  27  56 N5        30.04R
KENORA         MOCLDY    41  28  60 N6        30.05R
$$
                *** MANITOBA***

CITY           SKY/WX    TMP DP  RH WIND       PRES   REMARKS
BRANDON        PTCLDY    32  28  86 NE14      30.10S WCI  22
DAUPHIN        CLOUDY    32  28  86 N2        30.17R
ISLAND LAKE    PTCLDY    19  10  68 N3        30.22R
PILOT MOUND      N/A     34  30  86 NE8         N/A
THE PAS        PTCLDY    21  14  73 CALM      30.22R
THOMPSON       PTCLDY    18  12  79 NE6       30.27  WCI   9
WINNIPEG       MOCLDY    34  27  75 NE14      30.11R WCI  24
LYNN LAKE      CLEAR     16  12  86 E3        30.24R
CHURCHILL      CLEAR      0  -4  85 N10       30.38R WCI -17
GILLAM         PTCLDY     9   5  85 NE7       30.30R WCI  -3
$$
                ***SASKATCHEWAN***

CITY           SKY/WX    TMP DP  RH WIND       PRES   REMARKS
ESTEVAN        CLOUDY    34  34 100 SE2       30.05S FOG
KINDERSLEY     CLOUDY    39  34  81 E16       29.94R
LLOYDMINSTER   FLURRIES  34  34 100 SE8       29.98R
PRINCE ALBERT  MOCLDY    32  25  74 E7        30.10R
REGINA         CLOUDY    36  36 100 E15       30.04R
YORKTON        CLOUDY    34  30  86 E10       30.10R



USA.gov is the U.S. government's official web portal to all federal, state and local government web resources and services.